FW7109 Weather Reports


time (UTC)temp
C
wind
direction
speed
KPH
gust
KPH
rain 1hr
cm
rain 24hr
cm
rain mn
cm
humidity
%
barometer
mb
20260906003054 31 0 0.0 3.2 0.00 0.00 0.00 64 1011.3
20260906001549 31 0 0.0 3.2 0.00 0.00 0.00 62 1011.3
20260906000058 32 0 1.6 4.8 0.00 0.00 0.00 60 1011.2
20260905234547 32 248 1.6 9.7 0.00 0.00 0.00 58 1011.5
20260905233101 33 0 0.0 4.8 0.00 0.00 0.00 57 1011.5
20260905231551 34 220 1.6 6.4 0.00 0.00 0.00 55 1011.6
20260905230050 35 236 1.6 8.0 0.00 0.00 0.00 52 1011.4
20260905224551 36 0 0.0 4.8 0.00 0.00 0.00 54 1011.1
20260905223049 36 225 0.0 3.2 0.00 0.00 0.00 53 1011.3
20260905221601 36 0 0.0 3.2 0.00 0.00 0.00 48 1011.1
20260905220057 37 35 0.0 11.3 0.00 0.00 0.00 46 1011.1
20260905214556 37 36 0.0 4.8 0.00 0.00 0.00 44 1011.2
20260905213048 38 0 1.6 9.7 0.00 0.00 0.00 44 1011.2
20260905211550 37 38 1.6 8.0 0.00 0.00 0.00 45 1011.2
20260905210050 37 38 1.6 6.4 0.00 0.00 0.00 46 1011.5
20260905204548 37 32 3.2 9.7 0.00 0.00 0.00 46 1011.7
20260905203048 37 0 1.6 8.0 0.00 0.00 0.00 48 1011.7
20260905201546 36 41 3.2 9.7 0.00 0.00 0.00 48 1011.9
20260905194549 36 42 0.0 4.8 0.00 0.00 0.00 47 1012.1
20260905193046 36 0 1.6 6.4 0.00 0.00 0.00 46 1012.5
20260905191546 38 47 0.0 6.4 0.00 0.00 0.00 43 1012.5
20260905190051 38 211 0.0 4.8 0.00 0.00 0.00 46 1012.6
20260905184554 38 250 0.0 6.4 0.00 0.00 0.00 46 1012.8
20260905183048 37 240 0.0 12.9 0.00 0.00 0.00 46 1013.2
20260905181545 37 0 0.0 4.8 0.00 0.00 0.00 50 1013.3
20260905180100 37 207 3.2 8.0 0.00 0.00 0.00 46 1013.6
20260905174550 37 242 1.6 9.7 0.00 0.00 0.00 48 1013.5
20260905173109 36 5 1.6 6.4 0.00 0.00 0.00 48 1013.6
20260905171553 36 26 1.6 9.7 0.00 0.00 0.00 49 1013.7
20260905170053 36 49 3.2 9.7 0.00 0.00 0.00 52 1014.0
20260905164555 36 213 1.6 4.8 0.00 0.00 0.00 51 1014.1
20260905163047 35 271 1.6 9.7 0.00 0.00 0.00 54 1014.3
20260905161559 35 65 0.0 8.0 0.00 0.00 0.00 55 1014.7
20260905160058 35 221 1.6 8.0 0.00 0.00 0.00 55 1014.8
20260905154552 35 41 0.0 4.8 0.00 0.00 0.00 58 1014.8
20260905153048 34 342 0.0 3.2 0.00 0.00 0.00 61 1014.7
20260905151558 33 0 1.6 6.4 0.00 0.00 0.00 63 1014.4
20260905150051 32 0 0.0 3.2 0.00 0.00 0.00 63 1014.4
20260905144549 32 0 0.0 4.8 0.00 0.00 0.00 65 1014.3
20260905143049 31 0 0.0 4.8 0.00 0.00 0.00 71 1014.3
20260905141547 30 0 0.0 3.2 0.00 0.00 0.00 72 1014.3
20260905140058 29 0 0.0 3.2 0.00 0.00 0.00 76 1014.6
20260905134558 27 0 0.0 0.0 0.00 0.00 0.00 82 1014.6
20260905133049 26 0 0.0 0.0 0.00 0.00 0.00 87 1014.7
20260905131547 26 0 0.0 0.0 0.00 0.00 0.00 88 1014.9
20260905130052 25 0 0.0 3.2 0.00 0.00 0.00 90 1014.9
20260905124554 25 0 0.0 3.2 0.00 0.00 0.00 93 1014.7
20260905123047 24 0 0.0 0.0 0.00 0.00 0.00 94 1014.6
20260905121556 23 0 0.0 0.0 0.00 0.00 0.00 94 1014.5
20260905120059 23 0 0.0 0.0 0.00 0.00 0.00 93 1014.4
20260905114600 23 0 0.0 0.0 0.00 0.00 0.00 93 1014.4
20260905113054 23 0 0.0 0.0 0.00 0.00 0.00 93 1014.2
20260905111639 23 0 0.0 0.0 0.00 0.00 0.00 93 1014.0
20260905110048 23 0 0.0 0.0 0.00 0.00 0.00 93 1014.0
20260905104557 23 0 0.0 0.0 0.00 0.00 0.00 93 1014.0
20260905103044 23 0 0.0 0.0 0.00 0.00 0.00 92 1013.9
20260905101555 23 0 0.0 0.0 0.00 0.00 0.00 92 1013.8
20260905100057 23 0 0.0 0.0 0.00 0.00 0.00 92 1013.8
20260905094550 23 0 0.0 0.0 0.00 0.00 0.00 92 1013.8
20260905093110 23 0 0.0 0.0 0.00 0.00 0.00 92 1013.8
20260905091554 23 0 0.0 0.0 0.00 0.00 0.00 91 1013.6
20260905090048 24 0 0.0 0.0 0.00 0.00 0.00 91 1013.7
20260905084548 24 0 0.0 0.0 0.00 0.00 0.00 90 1013.6
20260905083044 24 0 0.0 0.0 0.00 0.00 0.00 89 1013.6
20260905081548 25 0 0.0 0.0 0.00 0.00 0.00 89 1013.7
20260905080051 25 0 0.0 0.0 0.00 0.00 0.00 88 1013.9
20260905074547 25 0 0.0 0.0 0.00 0.00 0.00 88 1013.8
20260905073052 25 0 0.0 0.0 0.00 0.00 0.00 87 1013.7
20260905071550 25 0 0.0 0.0 0.00 0.00 0.00 87 1013.8
20260905070054 25 0 0.0 0.0 0.00 0.00 0.00 87 1013.8
20260905064602 25 0 0.0 0.0 0.00 0.00 0.00 86 1013.8
20260905063042 25 0 0.0 0.0 0.00 0.00 0.00 86 1013.9
20260905061548 25 0 0.0 0.0 0.00 0.00 0.00 86 1014.0
20260905060048 25 0 0.0 0.0 0.00 0.00 0.00 86 1014.1
20260905054551 25 0 0.0 0.0 0.00 0.00 0.00 86 1014.1
20260905053042 25 0 0.0 0.0 0.00 0.00 0.00 86 1014.2
20260905051550 25 0 0.0 0.0 0.00 0.00 0.00 85 1014.2
20260905050056 26 0 0.0 0.0 0.00 0.00 0.00 85 1014.2
20260905044548 26 0 0.0 0.0 0.00 0.00 0.00 84 1014.1
20260905043042 26 0 0.0 0.0 0.00 0.00 0.00 84 1014.2
20260905041556 26 0 0.0 0.0 0.00 0.00 0.00 84 1014.2
20260905040049 26 0 0.0 0.0 0.00 0.00 0.00 83 1014.1
20260905034543 26 0 0.0 0.0 0.00 0.00 0.00 83 1014.1
20260905033053 27 0 0.0 0.0 0.00 0.00 0.00 83 1014.2
20260905031549 27 0 0.0 0.0 0.00 0.00 0.00 82 1014.2
20260905030052 27 0 0.0 0.0 0.00 0.00 0.00 82 1014.2
20260905024550 27 0 0.0 0.0 0.00 0.00 0.00 81 1014.3
20260905023052 27 0 0.0 0.0 0.00 0.00 0.00 80 1014.2
20260905021549 28 0 0.0 0.0 0.00 0.00 0.00 79 1014.1
20260905020048 28 0 0.0 0.0 0.00 0.00 0.00 79 1014.1
20260905014554 28 0 0.0 0.0 0.00 0.00 0.00 79 1014.1
20260905013042 28 0 0.0 0.0 0.00 0.00 0.00 77 1013.8
20260905011556 29 0 0.0 0.0 0.00 0.00 0.00 75 1013.5
20260905010048 29 0 0.0 0.0 0.00 0.00 0.00 74 1013.3
20260905004550 30 0 0.0 0.0 0.00 0.00 0.00 72 1013.2